Palo Alto, CA

7:05 AM PST on February 11, 2016 (GMT -0800)
Palo Alto Of Santa Clara County | | Change Station
CLOSE
Current Station
Airport
Location: Palo Alto,
Elevation: 7 ft
Nearby Weather Stations

Elev 7 ft 37.46 °N, 122.12 °W | Updated 15 hours ago

Clear
Clear
57 °F
Feels Like 57 °F
N
2
Wind Variable Wind from NNE
Gusts mph

Today
High -- | Low -- °F
--% Chance of Precip.
Yesterday
High -- | Low -- °F
Precip. -- in
Pressure 30.17 in
Visibility 10.0 miles
Clouds Mostly Cloudy 16000 ft
Dew Point 49 °F
Humidity 74%
Rainfall 0.00 in
Snow Depth Not available.
7:02 AM 5:43 PM
Waxing Crescent, 12% visible
METAR KPAO 102355Z 33006KT 10SM BKN160 18/13 A3017
Pressure 30.17 in
Visibility 10.0 miles
Clouds Mostly Cloudy 16000 ft
Dew Point 49 °F
Humidity 74%
Rainfall 0.00 in
Snow Depth Not available.
7:02 AM 5:43 PM
Waxing Crescent, 12% visible
METAR KPAO 102355Z 33006KT 10SM BKN160 18/13 A3017

10-Day Weather Forecast

Almanac

Astronomy

Feb. 11, 2016 Rise Set
Actual Time
Civil Twilight
Nautical Twilight
Astronomical Twilight
Moon
Length of Visible Light
Length of Day
Tomorrow will be .
, % of the Moon is Illuminated

Today's Extremes

State Highs State Lows

Community

WunderPhotos

Upload Photos

1,892,059 photos uploaded!

WunderBlog® & News

Nearby

Air Quality

  Air Quality AQ Index Pollutant
Not available.

Snow Depth

Station Depth Elevation

Earthquake Activity

City Distance Mag. Time & Date
Minimum magnitude displayed is 2.5.

Coastal Water Temperatures

Place Temperature

Stations

Nearby Weather Stations

Station Location Temp. Windchill Dew Point Humidity Wind Precip. Elev Updated Type
                   

Watches & Warnings

There are currently no watches in effect.